Date String (YYYY-MM-DD hh:mm:ss) UTC,Instrument flags,absolute air pressure of the measurement (hPa),sample flow rate (lpm),inlet stack bypass flow (lpm),air temperature of the measurement (°C),ambient temperature measured by the external sensor (°C),aerosol sample conditioner tube jacket temperature (°C),OPC LED temperature (°C),internal box temperature (°C),relative humidity of the measurement (%),span deviation,mass concentration of particles derived from Lorenz-Mie calculation of OPC scattering (μg/m³),mass concentration of particles derived from Lorenz-Mie calculation of OPC scattering (μg/m³),mass concentration of particles derived from Lorenz-Mie calculation of OPC scattering (μg/m³)
DateTimeUTC,F1_M11,P_M11,Q1_M11,Q2_M11,T1_M11,T2_M11,T3_M11,T4_M11,T5_M11,U1_M11,ZSPAN_M11,X0_M11,X2_M11,X1_M11
2024-01-01 23:00:00,SystemResetWarning,0830.7,5.00,000.00,026.6,025.9,000.0,034.7,027.9,10.6,0000.0,0007.56,0004.89,0004.58
2024-01-01 23:01:00,SystemResetWarning,0830.4,5.00,000.00,026.6,025.9,000.0,034.7,028.0,10.6,0000.0,0007.74,0004.93,0004.63
2024-01-01 23:02:00,SystemResetWarning,0830.5,5.00,000.00,026.6,025.9,000.0,034.8,027.9,10.6,0000.0,0008.36,0004.98,0004.68
2024-01-01 23:03:00,SystemResetWarning,0830.6,5.00,000.00,026.6,026.0,000.0,034.8,028.0,10.6,0000.0,0008.49,0005.02,0004.74
2024-01-01 23:04:00,SystemResetWarning,0830.5,5.00,000.00,026.6,026.0,000.0,034.8,028.0,10.6,0000.1,0008.86,0005.10,0004.80
2024-01-01 23:05:00,SystemResetWarning,0830.5,5.00,000.00,026.6,026.0,000.0,034.8,028.0,10.6,0003.3,0009.30,0005.15,0004.84
2024-01-01 23:06:00,SystemResetWarning,0830.6,4.99,000.00,026.6,026.0,000.0,034.8,028.0,10.6,0003.0,0009.49,0005.20,0004.89
2024-01-01 23:07:00,SystemResetWarning,0830.5,5.00,000.00,026.6,026.0,000.0,034.8,028.0,10.6,0002.4,0009.69,0005.26,0004.94
2024-01-01 23:08:00,SystemResetWarning,0830.6,5.00,000.00,026.6,026.0,000.0,034.8,028.0,10.6,0001.8,0009.85,0005.34,0005.00
2024-01-01 23:09:00,SystemResetWarning,0830.6,5.00,000.00,026.6,026.0,000.0,034.8,028.0,10.6,0001.7,0009.92,0005.40,0005.05
2024-01-01 23:10:00,SystemResetWarning,0830.6,5.00,000.00,026.6,026.0,000.0,034.8,028.0,10.6,0002.4,0009.93,0005.44,0005.11
2024-01-01 23:11:00,SystemResetWarning,0830.7,5.00,000.00,026.6,026.0,000.0,034.9,028.1,10.5,0003.2,0009.96,0005.49,0005.16
2024-01-01 23:12:00,SystemResetWarning,0830.6,5.00,000.00,026.7,026.0,000.0,034.9,028.0,10.6,0003.8,0010.59,0005.52,0005.19
2024-01-01 23:13:00,SystemResetWarning,0830.7,5.01,000.00,026.7,026.0,000.0,034.9,028.0,10.6,0003.8,0010.15,0005.52,0005.21
2024-01-01 23:14:00,SystemResetWarning,0830.7,5.01,000.00,026.7,026.0,000.0,034.9,028.0,10.6,0003.7,0009.82,0005.55,0005.24
2024-01-01 23:15:00,SystemResetWarning,0830.7,5.00,000.00,026.7,026.0,000.0,034.9,028.0,10.6,0003.8,0009.75,0005.58,0005.27
2024-01-01 23:16:00,SystemResetWarning,0830.7,5.00,000.00,026.7,026.0,000.0,034.9,028.0,10.6,0002.8,0009.21,0005.57,0005.29
2024-01-01 23:17:00,SystemResetWarning,0830.7,5.00,000.00,026.7,026.0,000.0,034.9,028.0,10.6,0002.1,0009.06,0005.59,0005.30
2024-01-01 23:18:00,SystemResetWarning,0830.7,5.00,000.00,026.7,026.0,000.0,034.9,028.0,10.6,0000.0,0008.98,0005.61,0005.32
2024-01-01 23:19:00,SystemResetWarning,0830.7,5.00,000.00,026.7,026.0,000.0,034.9,028.0,10.6,0000.0,0008.78,0005.57,0005.31
2024-01-01 23:20:00,SystemResetWarning,0830.8,5.00,000.00,026.7,026.0,000.0,034.9,028.0,10.7,0000.0,0008.71,0005.56,0005.32
2024-01-01 23:21:00,SystemResetWarning,0830.7,5.00,000.00,026.7,026.0,000.0,034.9,028.0,10.7,0000.0,0008.65,0005.53,0005.30
2024-01-01 23:22:00,SystemResetWarning,0830.8,5.00,000.00,026.7,026.0,000.0,034.9,028.0,10.8,0000.0,0009.34,0005.56,0005.31
2024-01-01 23:23:00,SystemResetWarning,0830.8,5.00,000.00,026.7,026.0,000.0,034.9,028.0,10.8,0000.0,0009.85,0005.56,0005.30
2024-01-01 23:24:00,SystemResetWarning,0830.8,5.00,000.00,026.7,026.0,000.0,034.9,028.0,10.9,0000.0,0009.64,0005.55,0005.29
2024-01-01 23:25:00,SystemResetWarning,0830.8,5.00,000.00,026.7,026.0,000.0,035.0,028.1,10.9,0000.0,0009.64,0005.54,0005.26
2024-01-01 23:26:00,SystemResetWarning,0830.8,4.99,000.00,026.7,026.0,000.0,035.0,028.1,10.9,0000.0,0009.66,0005.53,0005.25
2024-01-01 23:27:00,SystemResetWarning,0830.8,5.00,000.00,026.7,026.0,000.0,035.0,028.0,10.9,0000.0,0009.70,0005.52,0005.23
2024-01-01 23:28:00,SystemResetWarning,0830.9,5.00,000.00,026.7,026.0,000.0,035.0,028.0,10.9,0000.0,0010.04,0005.48,0005.19
2024-01-01 23:29:00,SystemResetWarning,0830.8,5.00,000.00,026.7,026.0,000.0,035.0,028.0,11.0,0003.7,0010.18,0005.45,0005.16
2024-01-01 23:30:00,SystemResetWarning,0830.8,5.00,000.00,026.7,026.0,000.0,035.0,028.0,11.0,0004.7,0010.49,0005.47,0005.16
2024-01-01 23:31:00,SystemResetWarning,0830.8,5.00,000.00,026.7,026.0,000.0,035.0,028.0,10.9,0004.2,0010.48,0005.46,0005.14
2024-01-01 23:32:00,SystemResetWarning,0830.8,5.00,000.00,026.7,026.0,000.0,035.0,028.0,10.9,0004.4,0010.83,0005.47,0005.13
2024-01-01 23:33:00,SystemResetWarning,0830.8,5.00,000.00,026.7,026.0,000.0,035.0,028.0,10.9,0004.8,0010.42,0005.44,0005.09
2024-01-01 23:34:00,SystemResetWarning,0830.8,5.00,000.00,026.7,026.0,000.0,035.0,028.0,10.9,0002.3,0010.06,0005.43,0005.07
2024-01-01 23:35:00,SystemResetWarning,0830.8,5.01,000.00,026.7,026.0,000.0,035.0,028.0,10.9,0001.7,0010.26,0005.44,0005.06
2024-01-01 23:36:00,SystemResetWarning,0830.8,5.00,000.00,026.7,026.0,000.0,035.0,028.0,10.9,0000.0,0010.67,0005.47,0005.04
2024-01-01 23:37:00,SystemResetWarning,0830.8,4.99,000.00,026.7,026.0,000.0,035.0,028.0,10.8,0000.0,0010.86,0005.48,0005.02
2024-01-01 23:38:00,SystemResetWarning,0830.8,4.99,000.00,026.7,026.0,000.0,035.0,028.1,10.9,0000.0,0011.21,0005.48,0005.01
2024-01-01 23:39:00,SystemResetWarning,0830.8,5.00,000.00,026.7,026.0,000.0,035.0,028.1,10.8,0000.0,0011.53,0005.47,0004.98
2024-01-01 23:40:00,SystemResetWarning,0830.8,5.01,000.00,026.7,026.0,000.0,035.0,028.0,10.7,0000.0,0011.81,0005.43,0004.95
2024-01-01 23:41:00,SystemResetWarning,0830.8,5.00,000.00,026.7,026.0,000.0,035.0,028.0,10.8,0000.0,0012.19,0005.37,0004.89
2024-01-01 23:42:00,SystemResetWarning,0830.8,5.00,000.00,026.7,026.0,000.0,035.0,028.1,10.7,0000.0,0012.32,0005.33,0004.84
2024-01-01 23:43:00,SystemResetWarning,0830.8,5.01,000.00,026.8,026.1,000.0,035.0,028.1,10.7,0000.0,0012.81,0005.32,0004.80
2024-01-01 23:44:00,SystemResetWarning,0830.8,5.01,000.00,026.7,026.1,000.0,035.0,028.1,10.7,0000.0,0014.02,0005.30,0004.77
2024-01-01 23:45:00,SystemResetWarning,0830.8,4.99,000.00,026.8,025.6,000.0,035.0,028.1,10.7,0000.0,0013.69,0005.28,0004.73
2024-01-01 23:46:00,SystemResetWarning,0830.7,4.98,000.00,026.6,023.5,000.0,035.0,027.7,10.8,0000.5,0013.50,0005.25,0004.68
2024-01-01 23:47:00,SystemResetWarning,0830.7,5.01,000.00,026.4,022.0,000.0,034.9,027.3,10.9,0004.6,0013.51,0005.18,0004.63
2024-01-01 23:48:00,SystemResetWarning,0830.7,5.01,000.00,026.3,021.9,000.0,034.8,026.9,11.0,0003.8,0013.75,0005.08,0004.57
2024-01-01 23:49:00,SystemResetWarning,0830.7,4.99,000.00,026.1,022.3,000.0,034.7,026.7,11.1,0000.0,0013.54,0005.00,0004.49
2024-01-01 23:50:00,SystemResetWarning,0830.7,5.00,000.00,026.0,022.7,000.0,034.7,026.8,11.2,0003.0,0013.65,0004.95,0004.42
2024-01-01 23:51:00,SystemResetWarning,0830.7,5.01,000.00,025.9,023.1,000.0,034.6,026.9,11.3,0004.9,0013.21,0004.90,0004.33
2024-01-01 23:52:00,SystemResetWarning,0830.7,4.99,000.00,025.9,023.5,000.0,034.5,027.0,11.3,0005.0,0012.66,0004.79,0004.22
2024-01-01 23:53:00,SystemResetWarning,0830.7,5.00,000.00,025.9,023.8,000.0,034.5,027.1,11.3,0001.5,0012.53,0004.68,0004.12
2024-01-01 23:54:00,SystemResetWarning,0830.7,5.00,000.00,025.9,024.1,000.0,034.5,027.2,11.2,0000.0,0011.80,0004.52,0003.99
2024-01-01 23:55:00,SystemResetWarning,0830.7,5.00,000.00,025.9,024.3,000.0,034.4,027.3,11.2,0000.0,0010.22,0004.39,0003.87
2024-01-01 23:56:00,SystemResetWarning,0830.7,5.01,000.00,026.0,024.4,000.0,034.4,027.3,11.2,0000.0,0010.01,0004.24,0003.75
2024-01-01 23:57:00,SystemResetWarning,0830.7,5.01,000.00,026.0,024.6,000.0,034.4,027.3,11.2,0000.0,0009.80,0004.09,0003.63
2024-01-01 23:58:00,SystemResetWarning,0830.7,4.99,000.00,026.0,024.7,000.0,034.4,027.4,11.2,0000.0,0009.35,0003.95,0003.52
2024-01-01 23:59:00,SystemResetWarning,0830.7,4.99,000.00,026.0,024.8,000.0,034.4,027.4,11.2,0000.0,0008.73,0003.85,0003.42
